E3896 Weather Reports


Display with metric or nautical units.
time (UTC)temp
F
wind
direction
speed
MPH
gust
MPH
rain 1hr
in
rain 24hr
in
rain mn
in
humidity
%
barometer
mb
20260505164008 55 210 2.0 6.0 0.00 0.00 0.00 87 1016.3
20260505163516 55 197 3.0 6.0 0.00 0.00 0.00 87 1016.2
20260505163027 55 163 2.0 4.0 0.00 0.00 0.00 87 1016.2
20260505162509 55 176 2.0 5.0 0.00 0.00 0.00 87 1016.2
20260505162008 54 200 2.0 5.0 0.00 0.00 0.00 87 1016.1
20260505161524 54 184 2.0 5.0 0.00 0.00 0.00 87 1016.0
20260505161009 54 172 2.0 5.0 0.00 0.00 0.00 87 1015.9
20260505160510 54 175 2.0 5.0 0.00 0.00 0.00 88 1015.9
20260505153022 54 163 4.0 7.0 0.00 0.00 0.00 88 1015.8
20260505152515 54 211 2.0 6.0 0.00 0.00 0.00 88 1015.8
20260505152012 54 200 3.0 7.0 0.00 0.00 0.00 88 1015.8
20260505151524 54 165 3.0 9.0 0.00 0.00 0.00 88 1015.7
20260505151012 54 171 3.0 9.0 0.00 0.00 0.00 88 1015.7
20260505150511 54 159 5.0 8.0 0.00 0.00 0.00 88 1015.7
20260505140513 54 165 4.0 10.0 0.00 0.00 0.00 88 1015.2
20260505125008 53 182 5.0 10.0 0.00 0.00 0.00 89 1014.4
20260505124526 53 196 2.0 10.0 0.00 0.00 0.00 89 1014.4
20260505124010 53 175 5.0 10.0 0.00 0.00 0.00 89 1014.4
20260505123508 53 151 5.0 10.0 0.00 0.00 0.00 89 1014.3
20260505123032 53 177 3.0 10.0 0.00 0.00 0.00 89 1014.3
20260505122507 53 155 4.0 9.0 0.00 0.00 0.00 89 1014.2
20260505122007 54 175 6.0 9.0 0.00 0.00 0.00 89 1014.2
20260505121527 53 159 3.0 9.0 0.00 0.00 0.00 89 1014.2
20260505121007 54 180 5.0 9.0 0.00 0.00 0.00 89 1014.1
20260505120514 54 156 5.0 8.0 0.00 0.00 0.00 90 1014.1
20260505120026 54 193 4.0 8.0 0.00 0.00 0.00 89 1014.1
20260505115507 54 199 4.0 8.0 0.00 0.00 0.00 89 1014.1
20260505115014 54 165 4.0 8.0 0.00 0.00 0.00 89 1013.9
20260505114526 54 165 4.0 7.0 0.00 0.00 0.00 89 1013.9
20260505114010 54 153 5.0 7.0 0.00 0.00 0.00 90 1014.0
20260505113512 54 201 2.0 5.0 0.00 0.00 0.00 90 1014.0
20260505113025 54 195 1.0 5.0 0.00 0.00 0.00 90 1014.0
20260505112509 54 175 2.0 5.0 0.00 0.00 0.00 90 1013.9
20260505112011 54 183 2.0 7.0 0.00 0.00 0.00 90 1013.9
20260505111526 54 215 2.0 7.0 0.00 0.00 0.00 90 1013.9
20260505111009 54 178 3.0 6.0 0.00 0.00 0.00 90 1013.9
20260505110512 54 165 3.0 6.0 0.00 0.00 0.00 90 1013.9
20260505102007 53 191 1.0 5.0 0.00 0.00 0.00 91 1013.5
20260505101547 53 178 1.0 7.0 0.00 0.00 0.00 91 1013.5
20260505101011 53 181 2.0 7.0 0.00 0.00 0.00 91 1013.4
20260505100506 53 175 4.0 7.0 0.00 0.00 0.00 91 1013.4
20260505100050 53 175 2.0 7.0 0.00 0.00 0.00 92 1013.4
20260505095510 53 161 3.0 7.0 0.00 0.00 0.00 92 1013.4
20260505095011 53 156 5.0 7.0 0.00 0.00 0.00 92 1013.4
20260505094530 53 170 4.0 7.0 0.00 0.00 0.00 92 1013.3
20260505094011 53 163 3.0 7.0 0.00 0.00 0.00 92 1013.3
20260505093509 53 173 2.0 6.0 0.00 0.00 0.00 92 1013.3
20260505093025 53 173 2.0 5.0 0.00 0.00 0.00 92 1013.2
20260505092512 53 170 2.0 5.0 0.00 0.00 0.00 92 1013.2
20260505092014 53 175 4.0 6.0 0.00 0.00 0.00 92 1013.1
20260505091524 53 169 3.0 6.0 0.00 0.00 0.00 92 1013.1
20260505091012 53 171 3.0 6.0 0.00 0.00 0.00 91 1012.9
20260505090512 53 175 2.0 6.0 0.00 0.00 0.00 91 1012.8
20260505090026 53 171 3.0 6.0 0.00 0.00 0.00 91 1012.7
20260505085513 53 169 1.0 7.0 0.00 0.00 0.00 91 1012.7
20260505085010 53 166 2.0 7.0 0.00 0.00 0.00 92 1012.7
20260505084526 53 165 2.0 7.0 0.00 0.00 0.00 92 1012.8
20260505084011 53 175 2.0 7.0 0.00 0.00 0.00 92 1012.8
20260505083513 53 178 1.0 6.0 0.00 0.00 0.00 92 1012.8
20260505083025 53 174 2.0 5.0 0.00 0.00 0.00 92 1012.8
20260505082508 53 174 0.0 5.0 0.00 0.00 0.00 92 1012.7
20260505082008 53 172 0.0 5.0 0.00 0.00 0.00 92 1012.7
20260505081526 53 174 0.0 3.0 0.00 0.00 0.00 92 1012.7
20260505081011 53 176 0.0 3.0 0.00 0.00 0.00 92 1012.6
20260505080510 53 175 0.0 3.0 0.00 0.00 0.00 91 1012.6
20260505080026 53 176 0.0 3.0 0.00 0.00 0.00 91 1012.6
20260505075506 53 177 0.0 2.0 0.00 0.00 0.00 91 1012.6
20260505075008 53 176 0.0 2.0 0.00 0.00 0.00 91 1012.6
20260505074504 53 176 0.0 2.0 0.00 0.00 0.00 91 1012.5
20260505074009 53 176 0.0 2.0 0.00 0.00 0.00 91 1012.5
20260505073504 53 176 0.0 2.0 0.00 0.00 0.00 91 1012.4
20260505073015 54 176 0.0 3.0 0.00 0.00 0.00 90 1012.4
20260505072507 54 176 0.0 3.0 0.00 0.00 0.00 90 1012.3
20260505072003 54 172 0.0 5.0 0.00 0.00 0.00 90 1012.2
20260505071503 54 170 0.0 5.0 0.00 0.00 0.00 90 1012.2
20260505071003 54 150 0.0 2.0 0.00 0.00 0.00 90 1012.2
20260505070507 54 151 0.0 2.0 0.00 0.00 0.00 90 1012.1
20260505070006 54 151 0.0 2.0 0.00 0.00 0.00 89 1012.0
20260505065504 54 157 0.0 2.0 0.00 0.00 0.00 89 1012.1
20260505065003 54 156 0.0 2.0 0.00 0.00 0.00 89 1012.0
20260505064503 54 155 0.0 2.0 0.00 0.00 0.00 89 1012.0
20260505064002 54 155 0.0 2.0 0.00 0.00 0.00 89 1011.9
20260505063502 54 153 0.0 6.0 0.00 0.00 0.00 89 1012.0
20260505063004 55 154 0.0 6.0 0.00 0.00 0.00 89 1012.0
20260505062504 55 169 1.0 4.0 0.00 0.00 0.00 88 1011.8
20260505062006 55 160 1.0 4.0 0.00 0.00 0.00 88 1011.7
20260505061512 55 165 0.0 3.0 0.00 0.00 0.00 87 1011.8
20260505061004 56 129 0.0 3.0 0.00 0.00 0.00 87 1011.7
20260505060503 56 128 1.0 3.0 0.00 0.00 0.00 86 1011.6
20260505060004 56 112 0.0 2.0 0.00 0.00 0.00 86 1011.6
20260505055504 57 100 0.0 2.0 0.00 0.00 0.00 85 1011.5
20260505055004 57 87 0.0 2.0 0.00 0.00 0.00 85 1011.3
20260505054506 57 84 0.0 2.0 0.00 0.00 0.00 84 1011.3
20260505054005 57 86 0.0 2.0 0.00 0.00 0.00 84 1011.3
20260505053504 58 86 0.0 2.0 0.00 0.00 0.00 84 1011.2
20260505053004 58 86 1.0 3.0 0.00 0.00 0.00 82 1011.2
20260505052504 59 101 1.0 3.0 0.00 0.00 0.00 81 1011.2
20260505052006 59 79 0.0 3.0 0.00 0.00 0.00 80 1011.1
20260505051537 59 119 1.0 2.0 0.00 0.00 0.00 79 1011.0
20260505051007 59 121 1.0 2.0 0.00 0.00 0.00 78 1011.0
20260505050507 59 122 1.0 2.0 0.00 0.00 0.00 78 1010.8
20260505041526 60 222 0.0 2.0 0.00 0.00 0.00 77 1010.4
20260505041009 60 222 0.0 2.0 0.00 0.00 0.00 76 1010.3
20260505040515 60 222 0.0 2.0 0.00 0.00 0.00 75 1010.2
20260505040025 61 222 0.0 2.0 0.00 0.00 0.00 74 1010.1
20260505035512 62 222 0.0 2.0 0.00 0.00 0.00 73 1010.0
20260505035011 63 222 0.0 2.0 0.00 0.00 0.00 73 1010.0
20260505034526 63 223 0.0 2.0 0.00 0.00 0.00 72 1009.9
20260505034010 64 222 0.0 2.0 0.00 0.00 0.00 66 1009.9
20260505033510 64 207 0.0 2.0 0.00 0.00 0.00 67 1009.8
20260505033028 65 207 0.0 2.0 0.00 0.00 0.00 68 1009.8
20260505032512 65 207 0.0 2.0 0.00 0.00 0.00 68 1009.7
20260505032009 65 207 0.0 2.0 0.00 0.00 0.00 67 1009.7
20260505031536 66 207 0.0 2.0 0.00 0.00 0.00 67 1009.7
20260505031016 66 207 0.0 2.0 0.00 0.00 0.00 65 1009.7
20260505030513 66 207 0.0 2.0 0.00 0.00 0.00 65 1009.6
20260505030026 66 207 0.0 2.0 0.00 0.00 0.00 64 1009.5
20260505025508 67 207 0.0 2.0 0.00 0.00 0.00 63 1009.5
20260505025009 67 207 0.0 2.0 0.00 0.00 0.00 61 1009.5
20260505024524 67 207 0.0 2.0 0.00 0.00 0.00 61 1009.4
20260505024009 67 207 0.0 2.0 0.00 0.00 0.00 59 1009.4
20260505023507 68 207 0.0 2.0 0.00 0.00 0.00 59 1009.3
20260505023024 69 207 0.0 2.0 0.00 0.00 0.00 58 1009.2
20260505022507 70 207 1.0 2.0 0.00 0.00 0.00 57 1009.3
20260505022011 70 223 0.0 2.0 0.00 0.00 0.00 56 1009.4
20260505021533 71 223 0.0 2.0 0.00 0.00 0.00 57 1009.4
20260505021012 71 223 0.0 3.0 0.00 0.00 0.00 57 1009.4
20260505020511 72 223 2.0 3.0 0.00 0.00 0.00 58 1009.5
20260505020030 72 74 0.0 2.0 0.00 0.00 0.00 55 1009.5
20260505015511 72 76 0.0 2.0 0.00 0.00 0.00 56 1009.4
20260505015010 72 77 1.0 2.0 0.00 0.00 0.00 58 1009.5
20260505014528 72 78 0.0 2.0 0.00 0.00 0.00 58 1009.5
20260505014007 72 78 0.0 2.0 0.00 0.00 0.00 58 1009.5
20260505013509 73 78 0.0 3.0 0.00 0.00 0.00 57 1009.5
20260505013030 73 78 0.0 3.0 0.00 0.00 0.00 57 1009.6
20260505012508 73 80 1.0 2.0 0.00 0.00 0.00 55 1009.4
20260505012013 73 80 0.0 5.0 0.00 0.00 0.00 55 1009.5
20260505011534 73 80 0.0 8.0 0.00 0.00 0.00 55 1009.6
20260505011009 73 58 2.0 8.0 0.00 0.00 0.00 55 1009.6
20260505010511 73 177 1.0 3.0 0.00 0.00 0.00 54 1009.6
20260505010048 73 136 0.0 2.0 0.00 0.00 0.00 54 1009.6
20260505005510 73 154 1.0 3.0 0.00 0.00 0.00 53 1009.6
20260505005011 73 105 1.0 4.0 0.00 0.00 0.00 53 1009.5
20260505004525 73 121 1.0 4.0 0.00 0.00 0.00 54 1009.6
20260505004009 73 123 1.0 4.0 0.00 0.00 0.00 54 1009.7
20260505003510 73 70 2.0 5.0 0.00 0.00 0.00 56 1009.6
20260505003025 73 84 1.0 5.0 0.00 0.00 0.00 56 1009.6
20260505002512 73 81 1.0 5.0 0.00 0.00 0.00 55 1009.6
20260505002009 73 80 1.0 4.0 0.00 0.00 0.00 55 1009.6
20260505001528 73 88 2.0 6.0 0.00 0.00 0.00 55 1009.7
20260505001011 73 94 1.0 6.0 0.00 0.00 0.00 54 1009.6
20260505000510 73 90 2.0 6.0 0.00 0.00 0.00 53 1009.6
20260505000040 73 77 2.0 8.0 0.00 0.00 0.00 53 1009.6
20260504235510 73 78 2.0 8.0 0.00 0.00 0.00 52 1009.6
20260504235010 73 92 2.0 7.0 0.00 0.00 0.00 51 1009.6
20260504234526 74 95 1.0 6.0 0.00 0.00 0.00 52 1009.7
20260504234010 74 136 1.0 6.0 0.00 0.00 0.00 52 1009.7
20260504233512 74 84 1.0 5.0 0.00 0.00 0.00 51 1009.7
20260504233026 73 90 2.0 5.0 0.00 0.00 0.00 54 1009.6
20260504232509 73 194 1.0 8.0 0.00 0.00 0.00 54 1009.6
20260504232011 73 101 2.0 8.0 0.00 0.00 0.00 54 1009.6
20260504231527 73 106 1.0 7.0 0.00 0.00 0.00 55 1009.6
20260504231010 72 161 2.0 7.0 0.00 0.00 0.00 58 1009.6
20260504230507 72 69 2.0 9.0 0.00 0.00 0.00 1009.6
20260504230039 72 177 2.0 9.0 0.00 0.00 0.00 1009.7
20260504225508 72 67 1.0 9.0 0.00 0.00 0.00 60 1009.8
20260504225011 72 74 3.0 9.0 0.00 0.00 0.00 60 1009.8
20260504224528 72 196 1.0 10.0 0.00 0.00 0.00 61 1009.8
20260504224007 71 110 1.0 10.0 0.00 0.00 0.00 1009.9
20260504223512 71 167 2.0 10.0 0.00 0.00 0.00 1010.0
20260504223028 72 103 2.0 6.0 0.00 0.00 0.00 1010.0
20260504222504 71 106 1.0 6.0 0.00 0.00 0.00 1010.0
20260504222006 71 115 0.0 5.0 0.00 0.00 0.00 59 1010.0
20260504221520 71 165 1.0 8.0 0.00 0.00 0.00 59 1010.1
20260504221004 71 87 2.0 8.0 0.00 0.00 0.00 1010.1
20260504220504 71 65 1.0 8.0 0.00 0.00 0.00 1010.2
20260504220012 71 89 1.0 8.0 0.00 0.00 0.00 62 1010.3
20260504215507 71 71 2.0 7.0 0.00 0.00 0.00 62 1010.3
20260504215009 71 81 2.0 8.0 0.00 0.00 0.00 62 1010.3
20260504214508 70 90 1.0 8.0 0.00 0.00 0.00 66 1010.4
20260504214003 70 93 1.0 4.0 0.00 0.00 0.00 65 1010.5
20260504213504 70 196 2.0 6.0 0.00 0.00 0.00 64 1010.6
20260504213008 70 92 2.0 6.0 0.00 0.00 0.00 64 1010.7
20260504212504 70 132 1.0 6.0 0.00 0.00 0.00 65 1010.7
20260504212006 69 117 1.0 6.0 0.00 0.00 0.00 64 1010.8
20260504211510 69 93 0.0 7.0 0.00 0.00 0.00 64 1010.8
20260504211004 69 110 1.0 8.0 0.00 0.00 0.00 64 1010.8
20260504210504 68 182 2.0 8.0 0.00 0.00 0.00 65 1010.8
20260504210010 68 149 1.0 7.0 0.00 0.00 0.00 67 1010.8
20260504205510 68 96 2.0 6.0 0.00 0.00 0.00 65 1010.8
20260504205003 69 83 2.0 8.0 0.00 0.00 0.00 65 1010.8
20260504204511 69 130 2.0 8.0 0.00 0.00 0.00 65 1011.0
20260504204004 69 99 1.0 7.0 0.00 0.00 0.00 65 1010.9
20260504203505 69 92 2.0 7.0 0.00 0.00 0.00 67 1010.9
20260504203011 69 82 2.0 7.0 0.00 0.00 0.00 65 1011.0
20260504202507 69 77 2.0 7.0 0.00 0.00 0.00 66 1010.9
20260504202004 69 128 0.0 2.0 0.00 0.00 0.00 66 1011.0
20260504201512 68 134 0.0 2.0 0.00 0.00 0.00 67 1011.0
20260504201008 68 103 0.0 3.0 0.00 0.00 0.00 68 1011.1
20260504200509 68 103 0.0 3.0 0.00 0.00 0.00 67 1011.1
20260504200012 68 112 0.0 9.0 0.00 0.00 0.00 67 1011.1
20260504195506 68 175 1.0 9.0 0.00 0.00 0.00 67 1011.1
20260504195013 68 184 2.0 9.0 0.00 0.00 0.00 68 1011.0
20260504194514 68 110 2.0 7.0 0.00 0.00 0.00 69 1011.0
20260504194006 67 158 0.0 5.0 0.00 0.00 0.00 70 1011.1
20260504193506 66 132 1.0 5.0 0.00 0.00 0.00 69 1011.2
20260504193014 66 152 1.0 3.0 0.00 0.00 0.00 71 1011.2
20260504192506 66 160 1.0 3.0 0.00 0.00 0.00 71 1011.2
20260504192012 65 97 0.0 3.0 0.00 0.00 0.00 72 1011.3
20260504191513 65 116 1.0 3.0 0.00 0.00 0.00 70 1011.4
20260504191006 65 139 0.0 2.0 0.00 0.00 0.00 70 1011.4
20260504190507 65 113 1.0 2.0 0.00 0.00 0.00 69 1011.4
20260504190012 65 155 0.0 4.0 0.00 0.00 0.00 70 1011.4
20260504185503 65 152 0.0 4.0 0.00 0.00 0.00 69 1011.5
20260504185008 65 157 0.0 2.0 0.00 0.00 0.00 70 1011.5
20260504184518 65 169 0.0 2.0 0.00 0.00 0.00 70 1011.5
20260504184010 64 169 0.0 6.0 0.00 0.00 0.00 71 1011.5
20260504183508 64 98 1.0 6.0 0.00 0.00 0.00 69 1011.5
20260504183014 64 150 1.0 6.0 0.00 0.00 0.00 68 1011.5
20260504182506 64 158 2.0 6.0 0.00 0.00 0.00 66 1011.5
20260504182013 64 128 1.0 6.0 0.00 0.00 0.00 65 1011.4
20260504181517 64 142 1.0 4.0 0.00 0.00 0.00 68 1011.4
20260504181007 64 127 1.0 4.0 0.00 0.00 0.00 70 1011.4
20260504180509 64 121 1.0 4.0 0.00 0.00 0.00 67 1011.3
20260504180016 64 123 1.0 3.0 0.00 0.00 0.00 70 1011.4
20260504175504 63 127 1.0 2.0 0.00 0.00 0.00 69 1011.5
20260504175007 63 121 0.0 2.0 0.00 0.00 0.00 70 1011.4
20260504174514 63 117 0.0 2.0 0.00 0.00 0.00 70 1011.4
20260504174004 63 115 0.0 2.0 0.00 0.00 0.00 69 1011.4
20260504173507 63 115 0.0 2.0 0.00 0.00 0.00 67 1011.4
20260504173032 63 115 0.0 2.0 0.00 0.00 0.00 70 1011.4
20260504172505 62 115 0.0 2.0 0.00 0.00 0.00 69 1011.5
20260504172009 63 101 0.0 2.0 0.00 0.00 0.00 71 1011.5
20260504171514 62 101 0.0 2.0 0.00 0.00 0.00 71 1011.5
20260504171011 61 122 0.0 2.0 0.00 0.00 0.00 72 1011.4
20260504170506 61 123 0.0 2.0 0.00 0.00 0.00 73 1011.4